Time,TemperatureF,DewpointF,PressureIn,WindDirection,WindDirectionDegrees,WindSpeedMPH,WindSpeedGustMPH,Humidity,HourlyPrecipIn,Conditions,Clouds,dailyrainin,SoftwareType,DateUTC
2013-02-16 01:22:00,30.0,29.0,-100.00,SSE,165,0.0,1.0,94,-99.99,,,-99.99,,2013-02-16 06:22:00,
2013-02-16 02:32:00,30.0,29.0,-100.00,South,180,0.0,1.0,96,-99.99,,,-99.99,,2013-02-16 07:32:00,
2013-02-16 04:21:00,32.0,31.0,-100.00,East,80,1.0,3.0,96,-99.99,,,-99.99,,2013-02-16 09:21:00,
2013-02-16 04:32:00,32.0,31.0,-100.00,East,80,1.0,3.0,96,-99.99,,,-99.99,,2013-02-16 09:32:00,
2013-02-16 05:32:00,34.0,29.0,-100.00,SE,145,2.0,5.0,81,-99.99,,,-99.99,,2013-02-16 10:32:00,
2013-02-16 07:32:00,33.0,30.0,-100.00,SSE,155,2.0,7.0,89,-99.99,,,-99.99,,2013-02-16 12:32:00,
2013-02-16 07:50:00,33.0,30.0,-100.00,South,175,1.0,8.0,89,-99.99,,,-99.99,,2013-02-16 12:50:00,
2013-02-16 08:22:00,33.0,30.0,-100.00,South,175,1.0,8.0,89,-99.99,,,-99.99,,2013-02-16 13:22:00,
2013-02-16 08:32:00,33.0,30.0,-100.00,South,175,1.0,8.0,89,-99.99,,,-99.99,,2013-02-16 13:32:00,
2013-02-16 08:41:00,33.0,30.0,-100.00,South,175,1.0,8.0,89,-99.99,,,-99.99,,2013-02-16 13:41:00,
2013-02-16 09:01:00,33.0,31.0,-100.00,East,100,1.0,6.0,92,-99.99,,,-99.99,,2013-02-16 14:01:00,
2013-02-16 09:11:00,33.0,31.0,-100.00,East,100,1.0,6.0,92,-99.99,,,-99.99,,2013-02-16 14:11:00,
2013-02-16 09:32:00,33.0,31.0,-100.00,South,180,1.0,6.0,93,-99.99,,,-99.99,,2013-02-16 14:32:00,
2013-02-16 10:22:00,35.0,33.0,-100.00,SSE,155,2.0,6.0,91,-99.99,,,-99.99,,2013-02-16 15:22:00,
2013-02-16 10:32:00,36.0,33.0,-100.00,SE,140,2.0,6.0,89,-99.99,,,-99.99,,2013-02-16 15:32:00,
2013-02-16 14:32:00,38.0,27.0,-100.00,SSE,160,5.0,9.0,65,-99.99,,,-99.99,,2013-02-16 19:32:00,
2013-02-16 15:32:00,38.0,27.0,-100.00,SE,145,3.0,9.0,63,-99.99,,,-99.99,,2013-02-16 20:32:00,
2013-02-16 17:32:00,37.0,25.0,-100.00,SSE,160,2.0,6.0,61,-99.99,,,-99.99,,2013-02-16 22:32:00,
2013-02-16 21:32:00,34.0,19.0,-100.00,SSE,150,2.0,6.0,54,-99.99,,,-99.99,,2013-02-17 02:32:00,
2013-02-16 23:32:00,32.0,19.0,-100.00,SE,135,3.0,12.0,58,-99.99,,,-99.99,,2013-02-17 04:32:00,